Powrót do katalogu

COSMOS 2251 DEB

AktywnyLEO
NORAD 36539·DEBRIS·🇷🇺 Russia

Wystrzelony Jun 16, 1993 z Plesetsk Cosmodrome

Loading…

Następne Przeloty (najbliższe 24 godziny)

TLE

ŚwieżeSource: Space-Track

Epoka: Sep 14, 2026, 08:55 UTC

1 36539U 93036BCZ 26257.37158113  .00001863  00000-0  38581-3 0  9994
2 36539  74.0194 248.6486 0028739 317.2117  42.6812 14.60751923879704

Śledź COSMOS 2251 DEB w czasie rzeczywistym z AllMySat

Download on the App Store